Location: Unspecified
(42.3650°N, 71.1030°W)
Time: 15:54:58
(UTC+00:00)

Transit 4A - Pass Details

Date: 03 July 2024
Orbit: 870 x 973 km, 66.8° (Epoch: 17 July)

Event Time Altitude Azimuth Distance (km) Brightness Sun altitude
Rises 01:15:51 0° 228° (SW) 3,456 11.0 -8.3°
Reaches altitude 10° 01:18:26 10° 234° (SW) 2,515 10.3 -8.7°
Maximum altitude 01:23:59 46° 307° (NW) 1,159 9.0 -9.4°
Drops below altitude 10° 01:29:34 10° 20° (NNE) 2,531 10.5 -10.2°
Sets 01:32:11 0° 27° (NNE) 3,480 11.1 -10.5°
